[[{"header":{"parameterUnit":"m.s-1","parameterCategory":1,"la1":30.2991,"la2":30.254,"lo1":-89.0895,"lo2":-89.0444,"dy":0.0017,"dx":0.0017,"nx":28,"ny":28,"refTime":"2025-07-16T09:00:00:Z","depth":0,"parameterNumber":2,"parameterNumberName":"U-component_of_WINDS"},"data":[0,0,0,0,0,0,0,0,0,0,0,0,0,0,0,0,0,0,0,0,0,0,0,0,0,0,0,0,0,0,0,0,0,0,0,0,0,0,0,0,0,0,0,0,0,0,0,0,0,0,0,0,0,0,0,0,0,0,-1.2928,-1.2931,0,-1.3153,-1.3155,-1.3158,-1.3246,-1.3245,-1.3245,-1.3244,-1.3474,-1.348,-1.3487,0,0,0,0,0,0,0,0,0,0,0,0,0,-1.2574,-1.258,-1.2928,-1.2931,-1.2934,-1.3152,-1.3156,-1.3159,-1.3246,-1.3245,-1.3245,-1.3244,-1.3472,-1.348,-1.3488,0,0,0,0,0,0,0,0,0,0,0,0,0,-1.2756,-1.2582,-1.2927,-1.3004,-1.3013,-1.3152,-1.3156,-1.3159,-1.3246,-1.3245,-1.3244,-1.3244,-1.3469,-1.3479,-1.3489,-1.3568,0,0,-1.3519,-1.3524,0,0,0,0,0,0,0,0,-1.2746,-1.2769,-1.299,-1.2999,-1.3009,-1.3171,-1.3115,-1.3297,-1.3247,-1.3158,-1.3244,-1.3243,-1.3374,-1.3391,-1.3436,-1.3579,-1.3589,-1.352,-1.3526,-1.353,-1.3533,0,0,0,0,0,0,0,-1.2733,-1.276,-1.3017,-1.2993,-1.3005,-1.3026,-1.3051,-1.315,-1.3268,-1.3165,-1.3172,-1.3198,-1.3379,-1.3426,-1.3442,-1.3592,-1.352,-1.3529,-1.3535,-1.3539,-1.3813,-1.3814,0,0,0,0,0,0,-1.2708,-1.2749,-1.301,-1.3024,-1.2872,-1.3033,-1.3061,-1.312,-1.3267,-1.3289,-1.3198,-1.3201,-1.3409,-1.343,-1.345,-1.3554,-1.353,-1.354,-1.3545,-1.3812,-1.3813,-1.3815,0,0,0,0,0,0,-1.27,-1.273,-1.3001,-1.2888,-1.2924,-1.3041,-1.3105,-1.3124,-1.3172,-1.3292,-1.3313,-1.3224,-1.3409,-1.3436,-1.3538,-1.3563,-1.3544,-1.3553,-1.381,-1.3812,-1.3814,-1.3761,0,0,0,0,0,0,-1.2689,-1.2727,-1.2758,-1.2888,-1.293,-1.3085,-1.3107,-1.313,-1.3189,-1.3194,-1.3322,-1.3343,-1.341,-1.3523,-1.3548,-1.3576,-1.3561,-1.3809,-1.3811,-1.3813,-1.3761,-1.3761,-1.3761,0,0,0,0,0,-1.2676,-1.2734,-1.276,-1.2791,-1.2972,-1.3087,-1.3111,-1.3188,-1.319,-1.3223,-1.33,-1.3339,-1.3556,-1.3533,-1.3562,-1.3593,-1.3807,-1.381,-1.3813,-1.3761,-1.3761,-1.3761,0,0,0,0,0,0,-1.2604,-1.2753,-1.2782,-1.2884,-1.2972,-1.3101,-1.3145,-1.3185,-1.3274,-1.3275,-1.3367,-1.3395,-1.349,-1.3552,-1.3524,-1.3678,-1.3684,-1.3693,-1.3635,-1.3636,-1.3635,-1.3619,-1.3569,0,0,0,0,0,-1.26,-1.2681,-1.2806,-1.2884,-1.2927,-1.3028,-1.3081,-1.3133,-1.3227,-1.3265,-1.335,-1.344,-1.3529,-1.3585,-1.3674,-1.377,-1.3799,-1.3806,-1.3806,-1.3805,-1.3812,-1.3868,-1.3872,-1.3824,-1.3824,-1.3824,0,0,-1.2593,-1.2684,-1.2729,-1.2872,-1.2946,-1.3028,-1.3059,-1.3144,-1.3206,-1.3278,-1.338,-1.3445,-1.3552,-1.3652,-1.37,-1.3706,-1.3831,-1.3809,-1.3807,-1.3815,-1.3871,-1.3876,-1.388,-1.3826,-1.3826,-1.3826,0,0,-1.2621,-1.2698,-1.2771,-1.2845,-1.2957,-1.3024,-1.3041,-1.3165,-1.3211,-1.3315,-1.3371,-1.3446,-1.3596,-1.3671,-1.3728,-1.3783,-1.3822,-1.3809,-1.3809,-1.3862,-1.3866,-1.387,-1.389,-1.3897,-1.3816,-1.3816,-1.3816,0,-1.2597,-1.2723,-1.2804,-1.2887,-1.2948,-1.3017,-1.3092,-1.3159,-1.3294,-1.3335,-1.334,-1.3531,-1.3607,-1.3726,-1.3739,-1.3783,-1.3806,-1.3796,-1.3859,-1.3864,-1.3868,-1.3889,-1.3896,-1.3813,-1.3814,-1.3814,-1.3814,0,-1.2689,-1.2775,-1.2821,-1.295,-1.3016,-1.3094,-1.3187,-1.3244,-1.329,-1.3356,-1.3461,-1.3555,-1.3664,-1.3696,-1.3741,-1.3821,-1.3821,-1.3841,-1.3849,-1.3869,-1.389,-1.3899,-1.381,-1.3811,-1.3812,-1.3812,0,0,-1.2679,-1.2852,-1.2867,-1.2927,-1.3055,-1.3123,-1.3204,-1.3311,-1.3359,-1.3449,-1.3519,-1.3645,-1.3665,-1.373,-1.3784,-1.383,-1.3869,-1.3845,-1.3849,-1.3847,-1.3964,-1.3948,-1.3956,-1.3895,-1.3897,-1.3898,-1.3955,0,-1.2725,-1.2874,-1.2949,-1.3065,-1.3146,-1.3213,-1.3284,-1.337,-1.3434,-1.3511,-1.3582,-1.367,-1.3688,-1.3728,-1.3777,-1.3854,-1.3894,-1.3851,-1.3962,-1.3965,-1.3934,-1.3967,-1.3951,-1.4,-1.3963,-1.3965,-1.3966,0,-1.2799,-1.2889,-1.3014,-1.3133,-1.317,-1.3232,-1.3336,-1.3409,-1.3508,-1.3552,-1.3624,-1.3677,-1.3765,-1.3765,-1.3888,-1.3857,-1.3906,-1.3951,-1.3955,-1.3969,-1.3967,-1.3983,-1.4017,-1.4025,-1.398,-1.3978,-1.3977,0,-1.278,-1.2932,-1.3027,-1.3076,-1.3217,-1.3259,-1.332,-1.3419,-1.3478,-1.3568,-1.3608,-1.3707,-1.3761,-1.3837,-1.3915,-1.3908,-1.403,-1.4037,-1.4069,-1.4067,-1.4092,-1.409,-1.4136,-1.4122,-1.4122,-1.4122,-1.4122,0,-1.2824,-1.2898,-1.302,-1.3078,-1.3163,-1.3248,-1.3329,-1.3395,-1.3482,-1.3554,-1.3617,-1.3683,-1.3782,-1.3861,-1.3922,-1.4015,-1.4038,-1.4076,-1.4092,-1.4071,-1.4066,-1.4106,-1.4105,-1.4124,-1.4124,-1.4123,-1.4123,0,-1.2818,-1.2903,-1.301,-1.3135,-1.3168,-1.3225,-1.3332,-1.3391,-1.3458,-1.3548,-1.3574,-1.3679,-1.3775,-1.386,-1.3986,-1.4028,-1.4122,-1.4141,-1.4089,-1.4098,-1.4125,-1.4121,-1.4199,-1.4213,-1.4188,-1.4188,-1.4188,0,-1.2841,-1.2899,-1.303,-1.3083,-1.3143,-1.3227,-1.3288,-1.3374,-1.3435,-1.3552,-1.3597,-1.3697,-1.3782,-1.3932,-1.4019,-1.4116,-1.4139,-1.4159,-1.4154,-1.4131,-1.414,-1.4136,-1.4142,-1.4159,-1.4158,-1.4158,-1.4158,0,-1.2872,-1.2912,-1.2997,-1.3098,-1.3169,-1.3252,-1.3337,-1.3376,-1.3478,-1.3543,-1.3642,-1.3708,-1.3837,-1.3936,-1.4043,-1.4105,-1.4149,-1.4159,-1.4172,-1.4152,-1.4119,-1.4138,-1.4089,-1.4157,-1.4157,-1.4157,-1.4157,-1.4157,-1.2882,-1.2937,-1.3039,-1.3132,-1.3205,-1.3283,-1.3344,-1.3419,-1.3503,-1.3615,-1.366,-1.3761,-1.3859,-1.4007,-1.4069,-1.4149,-1.4157,-1.4175,-1.418,-1.4183,-1.418,-1.4105,-1.4169,-1.4169,-1.4169,-1.4169,-1.4169,0,-1.2918,-1.2986,-1.3071,-1.3188,-1.3262,-1.3296,-1.3392,-1.3451,-1.3539,-1.3626,-1.3709,-1.3822,-1.3918,-1.4013,-1.4114,-1.416,-1.4183,-1.4184,-1.4182,-1.4196,-1.4167,-1.4146,-1.4164,-1.4164,-1.4164,-1.4164,-1.4164,-1.4164,-1.2945,-1.3041,-1.3092,-1.3224,-1.3292,-1.3391,-1.3443,-1.3515,-1.3586,-1.371,-1.379,-1.3851,-1.3942,-1.405,-1.414,-1.4166,-1.42,-1.4196,-1.4227,-1.4198,-1.4198,-1.4197,-1.4178,-1.4203,-1.4203,-1.425,-1.425,-1.425]},{"header":{"parameterUnit":"m.s-1","parameterCategory":1,"la1":30.2991,"la2":30.254,"lo1":-89.0895,"lo2":-89.0444,"dy":0.0017,"dx":0.0017,"nx":28,"ny":28,"refTime":"2025-07-16T09:00:00:Z","depth":0,"parameterNumber":3,"parameterNumberName":"V-component_of_WINDS"},"data":[0,0,0,0,0,0,0,0,0,0,0,0,0,0,0,0,0,0,0,0,0,0,0,0,0,0,0,0,0,0,0,0,0,0,0,0,0,0,0,0,0,0,0,0,0,0,0,0,0,0,0,0,0,0,0,0,0,0,-4.2103,-4.2102,0,-4.1967,-4.1966,-4.1964,-4.1869,-4.1868,-4.1868,-4.1867,-4.1722,-4.1719,-4.1716,0,0,0,0,0,0,0,0,0,0,0,0,0,-4.2279,-4.2276,-4.2103,-4.2102,-4.21,-4.1968,-4.1966,-4.1964,-4.1869,-4.1868,-4.1867,-4.1867,-4.1723,-4.172,-4.1716,0,0,0,0,0,0,0,0,0,0,0,0,0,-4.2178,-4.2275,-4.2104,-4.2037,-4.203,-4.1968,-4.1966,-4.1963,-4.1869,-4.1868,-4.1867,-4.1866,-4.1725,-4.172,-4.1715,-4.1707,0,0,-4.1701,-4.1699,0,0,0,0,0,0,0,0,-4.2184,-4.2172,-4.2049,-4.2042,-4.2033,-4.1934,-4.1974,-4.1877,-4.187,-4.193,-4.1867,-4.1866,-4.1793,-4.1783,-4.1759,-4.1701,-4.1694,-4.17,-4.1697,-4.1695,-4.1694,0,0,0,0,0,0,0,-4.2191,-4.2177,-4.2049,-4.2047,-4.2037,-4.2013,-4.1998,-4.1955,-4.1869,-4.1925,-4.1917,-4.1903,-4.1789,-4.1764,-4.1755,-4.1692,-4.17,-4.1696,-4.1693,-4.1691,-4.1623,-4.1624,0,0,0,0,0,0,-4.2209,-4.2184,-4.2054,-4.2045,-4.2108,-4.2011,-4.1993,-4.1967,-4.1869,-4.1854,-4.1904,-4.1899,-4.1773,-4.1761,-4.175,-4.1735,-4.1695,-4.1691,-4.1688,-4.1622,-4.1623,-4.1624,0,0,0,0,0,0,-4.2213,-4.2199,-4.2059,-4.2113,-4.2093,-4.2009,-4.198,-4.1965,-4.194,-4.1854,-4.1838,-4.1895,-4.1772,-4.1757,-4.172,-4.1729,-4.1689,-4.1684,-4.1621,-4.1622,-4.1624,-4.1706,0,0,0,0,0,0,-4.2219,-4.2201,-4.2197,-4.2113,-4.2091,-4.2032,-4.198,-4.1963,-4.1933,-4.1925,-4.1841,-4.1826,-4.177,-4.1727,-4.1715,-4.1722,-4.1681,-4.1619,-4.1621,-4.1623,-4.1702,-4.171,-4.1717,0,0,0,0,0,-4.2225,-4.2224,-4.2197,-4.2182,-4.2085,-4.2033,-4.2019,-4.1956,-4.1934,-4.1929,-4.1875,-4.1829,-4.1731,-4.1724,-4.171,-4.1715,-4.1618,-4.1621,-4.1623,-4.1699,-4.1709,-4.1717,0,0,0,0,0,0,-4.2308,-4.2212,-4.2181,-4.2153,-4.2102,-4.2017,-4.2009,-4.1968,-4.1921,-4.1916,-4.1838,-4.182,-4.1791,-4.1749,-4.1744,-4.1704,-4.1669,-4.1669,-4.1732,-4.174,-4.1748,-4.1758,-4.1677,0,0,0,0,0,-4.2324,-4.2291,-4.2208,-4.2191,-4.2167,-4.2093,-4.2068,-4.2024,-4.1968,-4.1945,-4.1887,-4.1833,-4.179,-4.1763,-4.1719,-4.1697,-4.1677,-4.1693,-4.1701,-4.1708,-4.1708,-4.1695,-4.1701,-4.1632,-4.1632,-4.1632,0,0,-4.2354,-4.2297,-4.2281,-4.2206,-4.2162,-4.2129,-4.2075,-4.2042,-4.2017,-4.1939,-4.1901,-4.1858,-4.1792,-4.1764,-4.1748,-4.1728,-4.1723,-4.1711,-4.1717,-4.1713,-4.1698,-4.1704,-4.171,-4.1633,-4.1633,-4.1633,0,0,-4.2392,-4.2347,-4.2328,-4.2286,-4.2221,-4.2172,-4.2168,-4.209,-4.2059,-4.202,-4.1962,-4.1931,-4.1858,-4.1815,-4.1783,-4.1811,-4.1767,-4.1798,-4.1837,-4.1825,-4.1831,-4.1835,-4.1845,-4.185,-4.1799,-4.1799,-4.1799,0,-4.2438,-4.2387,-4.2323,-4.2295,-4.2264,-4.2196,-4.2177,-4.2139,-4.2061,-4.2041,-4.2021,-4.1931,-4.1882,-4.1843,-4.185,-4.1826,-4.1819,-4.1806,-4.1835,-4.1839,-4.1842,-4.1851,-4.1855,-4.1803,-4.1803,-4.1802,-4.1802,0,-4.2447,-4.2413,-4.2406,-4.2337,-4.2305,-4.2281,-4.2214,-4.219,-4.215,-4.2104,-4.2066,-4.2006,-4.1949,-4.1937,-4.1896,-4.1893,-4.1883,-4.185,-4.1813,-4.1854,-4.1861,-4.1864,-4.1809,-4.1808,-4.1807,-4.1805,0,0,-4.2529,-4.2429,-4.2427,-4.2396,-4.2321,-4.2293,-4.2267,-4.2214,-4.2195,-4.2146,-4.2122,-4.2064,-4.2035,-4.1999,-4.1953,-4.1943,-4.197,-4.1912,-4.1909,-4.1925,-4.1964,-4.1988,-4.1993,-4.1942,-4.1942,-4.1943,-4.1969,0,-4.2556,-4.2508,-4.2452,-4.2422,-4.239,-4.2328,-4.2305,-4.2257,-4.2214,-4.218,-4.2132,-4.2093,-4.2056,-4.2035,-4.2022,-4.197,-4.1977,-4.1967,-4.1918,-4.1917,-4.1936,-4.1997,-4.2022,-4.2049,-4.1972,-4.1972,-4.1972,0,-4.258,-4.2537,-4.2505,-4.2436,-4.2421,-4.2402,-4.235,-4.2319,-4.2264,-4.2233,-4.2196,-4.2148,-4.2118,-4.2088,-4.2045,-4.2039,-4.2017,-4.1988,-4.1988,-4.1979,-4.1946,-4.199,-4.2056,-4.2061,-4.1976,-4.1976,-4.1975,0,-4.2645,-4.2578,-4.2551,-4.2526,-4.2445,-4.2433,-4.2398,-4.2342,-4.2315,-4.227,-4.2251,-4.2203,-4.2176,-4.2139,-4.208,-4.2063,-4.2044,-4.2008,-4.2017,-4.2019,-4.2014,-4.2015,-4.2078,-4.2002,-4.2002,-4.2002,-4.2001,0,-4.268,-4.2663,-4.258,-4.2563,-4.2542,-4.2479,-4.246,-4.2419,-4.237,-4.2344,-4.2287,-4.2263,-4.2187,-4.2155,-4.2108,-4.2081,-4.2069,-4.2043,-4.203,-4.2047,-4.2051,-4.203,-4.2026,-4.2003,-4.2002,-4.2002,-4.2002,0,-4.2747,-4.2691,-4.2657,-4.2585,-4.2566,-4.2554,-4.2491,-4.2473,-4.2428,-4.2396,-4.2385,-4.2315,-4.2274,-4.2212,-4.2152,-4.2121,-4.2101,-4.2081,-4.212,-4.2113,-4.2126,-4.2126,-4.2177,-4.218,-4.2103,-4.2104,-4.2105,0,-4.2772,-4.2759,-4.2686,-4.2666,-4.2634,-4.2601,-4.2575,-4.2512,-4.2486,-4.2424,-4.2413,-4.2369,-4.233,-4.2268,-4.2211,-4.2165,-4.2143,-4.2165,-4.2136,-4.2154,-4.2144,-4.2145,-4.2143,-4.2171,-4.2172,-4.2173,-4.2174,0,-4.2824,-4.2798,-4.2763,-4.2719,-4.2689,-4.265,-4.2609,-4.2595,-4.2524,-4.2498,-4.2457,-4.2427,-4.2368,-4.2325,-4.2272,-4.2235,-4.2193,-4.2184,-4.2184,-4.22,-4.2224,-4.2211,-4.2138,-4.2182,-4.2181,-4.2181,-4.218,-4.218,-4.2871,-4.2857,-4.2804,-4.2767,-4.2731,-4.2694,-4.2674,-4.2629,-4.2594,-4.2543,-4.2508,-4.247,-4.2417,-4.2342,-4.2308,-4.2277,-4.2258,-4.2258,-4.2257,-4.2258,-4.2265,-4.223,-4.2267,-4.2267,-4.2266,-4.2266,-4.2266,0,-4.292,-4.2884,-4.2851,-4.2797,-4.2768,-4.2734,-4.2687,-4.2665,-4.2633,-4.2588,-4.2552,-4.2507,-4.2465,-4.2407,-4.2361,-4.2348,-4.2327,-4.2338,-4.2337,-4.233,-4.2284,-4.2288,-4.2355,-4.2355,-4.2355,-4.2355,-4.2355,-4.2355,-4.2942,-4.2916,-4.2885,-4.2841,-4.2805,-4.2769,-4.2745,-4.2711,-4.2676,-4.2628,-4.2595,-4.2558,-4.2507,-4.2458,-4.2419,-4.2403,-4.2389,-4.2405,-4.2383,-4.2341,-4.2333,-4.2325,-4.2329,-4.2403,-4.2403,-4.2432,-4.2432,-4.2432]}]]